Home   Weather   Orange   Past weeks

Flag for USA Past Weather in Orange, California, USA — Yesterday and Last 2 Weeks

Now
44 °F

Clear.


Feels Like: 42 °F
Forecast: 38 / 61 °F
Wind: 5 mph from Northeast

Location: John Wayne Airport-Orange County Airport

Current Time: Feb 24, 2017 at 4:44:55 am

Latest Report: Feb 24, 2017 at 3:53 am


Visibility: 10 mi

Pressure: 30.10 "Hg

Humidity: 76%

Dew Point: 37 °F

Location of OrangeLocation

Past Weather in Orange — Graph

°F

Orange Temperature Yesterday

Maximum temperature yesterday: 61 °F (at 12:53 pm)
Minimum temperature yesterday: 48 °F (at 4:53 am)
Average temperature yesterday: 54 °F

High & Low Weather Summary for the Past Weeks

 TemperatureHumidityPressure
High75 °F (Feb 12, 2:53 pm)100% (Feb 9, 2:31 am)30.34 "Hg (Feb 9, 2:31 am)
Low45 °F (Feb 24, 2:53 am)22% (Feb 23, 12:53 pm)29.47 "Hg (Feb 17, 3:53 pm)
Average58 °F82%30.02 "Hg
* Reported Feb 9 2:31 am — Feb 24 2:53 am, Orange, Weather by CustomWeather, © 2017

Note: Actual official high and low records may vary slightly from our data, if they occured in-between our weather recording intervals... More about our weather records

Advertising

Orange Weather History for the Previous 24 Hours

Scroll right to see more
 ConditionsComfort  
Time TempWeatherWind HumidityBarometerVisibility
2:53 am
Fri, Feb 24
45 °FClear.No wind76%30.10 "Hg10 mi
1:53 am46 °FClear.No wind73%30.11 "Hg10 mi
12:53 am48 °FClear.No wind71%30.11 "Hg10 mi
11:53 pm
Thu, Feb 23
48 °FClear.No wind71%30.11 "Hg10 mi
10:53 pm50 °FPassing clouds.No wind68%30.10 "Hg10 mi
9:53 pm51 °FPassing clouds.No wind66%30.09 "Hg10 mi
8:53 pm53 °FClear.3 mph64%30.09 "Hg10 mi
7:53 pm55 °FClear.3 mph51%30.08 "Hg10 mi
6:53 pm55 °FClear.5 mph47%30.06 "Hg10 mi
5:53 pm57 °FClear.3 mph41%30.05 "Hg10 mi
4:53 pm57 °FPassing clouds.8 mph44%30.03 "Hg10 mi
3:53 pm58 °FPassing clouds.14 mph41%30.03 "Hg10 mi
2:53 pm58 °FPassing clouds.15 mph41%30.03 "Hg10 mi
1:53 pm59 °FPassing clouds.14 mph36%30.02 "Hg10 mi
12:53 pm61 °FPassing clouds.7 mph22%30.03 "Hg10 mi
11:53 am59 °FPassing clouds.7 mph25%30.06 "Hg10 mi
10:53 am58 °FPassing clouds.8 mph28%30.08 "Hg10 mi
9:53 am57 °FSunny.7 mph31%30.09 "Hg10 mi
8:53 am54 °FPassing clouds.3 mph41%30.09 "Hg10 mi
7:53 am51 °FPassing clouds.3 mph48%30.09 "Hg10 mi
6:53 am50 °FPassing clouds.6 mph50%30.07 "Hg10 mi
5:53 am49 °FClear.No wind55%30.05 "Hg10 mi
4:53 am48 °FClear.No wind59%30.04 "Hg10 mi
Weather by CustomWeather, © 2017

See weather overviewHow to use our weather pages